Flag Weather past 2 weeks in Sion, Valais, Switzerland

Now
58 °F

Cool.


Feels Like: 57 °F
Forecast: 40 / 57 °F
Wind: 5 mph from West

Location: Sion

Current Time: Nov 24, 2014 at 3:29:53 PM

Latest Report: Nov 24, 2014 at 2:00 PM


Visibility: N/A

Pressure: 30.15 "Hg

Humidity: 60%

Dew point: 44 °F

Location of SionLocation

Historic Weather in Sion — Graph

°F

Sion temperature yesterday

Maximum temperature yesterday: 58 °F (at 3:00 PM)
Minimum temperature yesterday: 36 °F (at 5:00 AM)
Average temperature yesterday: 46 °F

Past Weeks' High & Low Weather Summary

 TemperatureHumidityPressure
High65 °F (Nov 11, 2:00 PM)100% (Nov 16, 1:00 AM)30.36 "Hg (Nov 16, 1:00 AM)
Low34 °F (Nov 19, 6:00 AM)38% (Nov 11, 2:00 PM)29.58 "Hg (Nov 15, 4:00 PM)
Average46 °F82%29.95 "Hg
* Reported Nov 9 2:00 PM — Nov 24 2:00 PM, Sion, Weather by CustomWeather, © 2014

Note: Actual official high and low records may vary slightly from our data, if they occured in-between our weather recording intervals... More about our weather records

Advertising

Sion weather history for previous 24 hours

 ConditionsComfort  
Time TempWeatherWind HumidityBarometerVisibility
2:00 PM
Nov 24
58 °FCool.5 mph60%30.15 "HgN/A
1:00 PM58 °FRefreshingly cool.1 mph58%30.16 "HgN/A
12:00 PM55 °FCool.2 mph66%30.19 "HgN/A
11:00 AM53 °FCool.3 mph72%30.22 "HgN/A
10:00 AM48 °FCool.1 mph82%30.24 "HgN/A
9:00 AM47 °FCool.1 mph81%30.24 "HgN/A
8:00 AM44 °FQuite cool.1 mph88%30.25 "HgN/A
7:00 AM46 °FPassing clouds.2 mph82%30.24 "Hg12 mi
6:00 AM47 °FCool.2 mph78%30.22 "HgN/A
5:00 AM48 °FCool.1 mph76%30.22 "HgN/A
4:00 AM48 °FOvercast.3 mph75%30.23 "Hg12 mi
3:00 AM45 °FCool.2 mph84%30.25 "HgN/A
2:00 AM46 °FCool.3 mph83%30.25 "HgN/A
1:00 AM46 °FOvercast.2 mph83%30.25 "Hg14 mi
12:00 AM47 °FCool.3 mph77%30.25 "HgN/A
11:00 PM
Nov 23
45 °FCool.2 mph84%30.26 "HgN/A
10:00 PM49 °FOvercast.1 mph73%30.24 "Hg12 mi
9:00 PM46 °FCool.2 mph79%30.24 "HgN/A
8:00 PM48 °FCool.2 mph74%30.22 "HgN/A
7:00 PM50 °FOvercast.No wind68%30.21 "Hg14 mi
6:00 PM50 °FCool.3 mph70%30.20 "HgN/A
5:00 PM53 °FCool.2 mph64%30.19 "HgN/A
4:00 PM56 °FOvercast.3 mph53%30.17 "Hg16 mi
3:00 PM58 °FRefreshingly cool.1 mph51%30.18 "HgN/A
Weather by CustomWeather, © 2014

See weather overviewHow to use our weather pages